Время (UTC), дата Ветер
(°,м/с) 
Видим.   Явления Облачность Т
(°С)
Тd
(°С)
f(%) Тe
(°С)
Pmin
(гПа)
dP
(гПа)
Po
(мм)
O2
(г/м3)
Тmin Tmax R s Состояние
почвы
00 01.08.12 100 (В) >10 км    4/0 средняя 
[Ac trans]
+16.8 +11.1 69 +21  1010.8  -0.4  719  271           
03 01.08.12 110 (В) >10 км    4/0 средняя, верхняя 
[Ac trans|Ci fib]
+16.2 +11.5 74 +20  1011.5  0.6  720  271           
06 01.08.12 120 (ЮВ) >10 км    9/0 верхняя 
[Ci fib]
+22.1 +11.7 52 +26  1011  0.5  720  266  +15.2         
09 01.08.12 110 (В) 10  >10 км    9/0 верхняя 
[Ci fib]
+26.7 +8.3 31 +27  1010.2  720  263           
12 01.08.12 110 (В) >10 км    ясно 
+27.8 +8.2 29 +28  1009.7  -0.3  720  262           
15 01.08.12 100 (В) >10 км    9/0 средняя, верхняя 
[Ac trans|Ci fib]
+27 +8 30 +27  1010.1  0.2  720  263    +28.7       
18 01.08.12 150 (ЮВ) >10 км    9/0 средняя, верхняя 
[Ac trans|Ci fib]
+22.5 +11.2 49 +26  1012.1  1.3  721  266    +28.7       
21 01.08.12 120 (ЮВ) >10 км    6/0 средняя 
[Ac trans]
+21.5 +8.6 44 +22  1012.3  721  268           
00 02.08.12 110 (В) >10 км    8/0 средняя 
[Ac trans]
+19.6 +9.3 51 +21  1012.5  0.1  721  269           
03 02.08.12 080 (В) >10 км    10/5 1000 м кучево-дожд., средняя 
[Cb calv|Ac und]
+18.6 +10.1 58 +21  1013.7  0.9  721  270           
06 02.08.12 110 (В) >10 км    9/5 1000 м кучево-дожд., средняя 
[Cb calv|Ac trans]
+21.9 +8.5 42 +22  1014  0.8  722  268  +18.6         
09 02.08.12 120 (ЮВ) >10 км    6/0 
+27.7 +8 29 +28  1012.7  3.1  722  263           
12 02.08.12 120 (ЮВ) >10 км    3/0 верхняя 
[Ci fib]
+29.5 +8.2 26 +30  1011.7  -0.3  721  261           
15 02.08.12 100 (В) >10 км    3/0 верхняя 
[Ci fib]
+28.3 +8 28 +28  1011.8  0.1  721  262    +29.6       
18 02.08.12 120 (ЮВ) >10 км    5/0 средняя 
[Ac trans]
+22.9 +9.2 42 +24  1013.3  0.5  722  267    +29.6       
21 02.08.12 110 (В) >10 км    1/0 средняя 
[Ac trans]
+21.3 +11.7 54 +26  1013.2  -0.2  722  267           
00 03.08.12 120 (ЮВ) >10 км    ясно 
+18.4 +10.6 60 +22  1013.3  -0.5  721  270           
03 03.08.12 110 (В) >10 км    ясно 
+18.3 +11.8 66 +23  1013.5  0.2  721  270           
06 03.08.12 120 (ЮВ) >10 км    ясно 
+25.4 +11.3 41 +29  1012.2  721  264  +16.7         
09 03.08.12 120 (ЮВ) 2000 м    ясно 
+30.8 +6.9 22 +31  1010.7  721  260           
12 03.08.12 110 (В) >10 км    ясно 
+32.2 +9.7 25 +34  1009.3  -1.1  720  258           
15 03.08.12 190 (Ю) >10 км    4/1 1000 м средняя, верхняя 
[Sc|Ac cast|Ci]
+29.3 +11.6 33 +34  1009.8  -0.1  720  260    +32.3       
18 03.08.12 220 (ЮЗ) >10 км    8/0 средняя, верхняя 
[Ac trans|Ci fib]
+25.4 +13.3 47 +32  1010.1  -0.3  720  263    -40.2      мокрая 
21 03.08.12 170 (Ю) >10 км    6/3 1000 м средняя, верхняя 
[Sc|Ac trans|Ci ing]
+23.3 +13.6 54 +31  1009.8  -0.6  719  264           
00 04.08.12 020 (С) >10 км    3/0 средняя 
[Ac trans]
+21.1 +12.7 59 +27  1009.8  -0.4  719  266           
03 04.08.12 180 (Ю) >10 км    4/0 средняя 
[Ac trans]
+21.3 +13.9 63 +29  1010.3  0.5  719  266           
06 04.08.12 190 (Ю) >10 км    3/0 средняя 
[Ac trans]
+27.9 +14.1 43 +36  1009.2  0.1  719  260  +19.3         
09 04.08.12 080 (В) >10 км    3/1 600 м верхняя 
[Cu hum|Ci fib]
+31.9 +12.1 30 +37  1008.4  0.1  719  257           
12 04.08.12 080 (В) >10 км    1/0 верхняя 
[Ci fib]
+32.6 +14.1 33 +41  1007.6  -0.7  719  256           
15 04.08.12 110 (В) >10 км    6/0 средняя, верхняя 
[Ac trans|Ci fib]
+30.4 +13.8 36 +38  1007.2  -0.7  718  258    +33.1       
18 04.08.12 060 (СВ) >10 км    8/0 средняя 
[Ac trans]
+27.1 +11.2 37 +31  1008.9  719  262    +33.1       
21 04.08.12 010 (С) >10 км    9/0 средняя 
[Ac trans]
+24.5 +14.2 53 +33  1009.1  0.1  719  263           
00 05.08.12 130 (ЮВ) >10 км    5/0 средняя 
[Ac trans]
+21.5 +11.1 52 +25  1008.8  -0.9  718  266           
03 05.08.12 310 (СЗ) >10 км    3/0 средняя 
[Ac trans]
+21.7 +15.3 67 +32  1008.9  0.2  719  265           
06 05.08.12 280 (З) >10 км    9/3 1000 м кучево-дожд., средняя 
[Cb calv|Ac trans]
+26.5 +15.3 50 +37  1008.7  0.6  719  261  +18.8         
09 05.08.12 020 (С) >10 км    8/0 средняя 
[Ac trans]
+28.5 +15.7 46 +40  1008.3  719  259           
12 05.08.12 020 (С) >10 км    8/3 1000 м средняя 
[Sc|Ac trans]
+30 +11.7 32 +34  1007.8  -0.4  719  259           
15 05.08.12 040 (СВ) >10 км    9/4 1000 м средняя 
[Sc|Ac trans]
+29.3 +11.2 33 +33  1007.7  -0.2  719  259    +31.2       
18 05.08.12 240 (ЮЗ) >10 км    10/3 1000 м кучево-дожд., средняя 
[Cb calv|Ac und]
+23.7 +17.1 67 +38  1009.1  -0.2  719  263    +31.2       
21 05.08.12 220 (ЮЗ) >10 км    4/0 средняя 
[Ac trans]
+21.2 +16.7 75 +34  1009  -0.5  719  265           
00 06.08.12 050 (СВ) >10 км    6/0 средняя 
[Ac trans]
+21.2 +16.5 75 +34  1009  0.1  719  265           
03 06.08.12 120 (ЮВ) >10 км    10/3 1000 м средняя 
[Sc diur, vesp|Ac und]
+21.6 +17.2 76 +36  1009.5  0.6  719  265           
06 06.08.12 060 (СВ) >10 км    9/3 1000 м кучево-дожд., средняя 
[Cb calv|Ac trans]
+24.3 +16.2 61 +36  1009.1  719  262  +19.8         
09 06.08.12 080 (В) >10 км    9/0 средняя, верхняя 
[Ac trans|Ci fib]
+25.7 +16.3 56 +38  1009.2  0.3  719  261           
12 06.08.12 060 (СВ) >10 км    8/3 600 м верхняя 
[Cu hum|Ci fib]
+29.4 +15 42 +39  1007.8  0.3  719  258           
15 06.08.12 230 (ЮЗ) >10 км  слаб. ливневой дождь  10/4 1000 м кучево-дожд., средняя 
[Cb cap|Ac und]
+22.7 +18.7 78 +40  1009.8  0.9  719  263    +29.4       
18 06.08.12 110 (В) >10 км  слаб. ливневой дождь  10/5 600 м кучево-дожд., средняя 
[Cb cap|Ac und]
+19.7 +18.4 92 +37  1012.2  1.7  721  266    +29.4  0.0     
21 06.08.12 360 (С) >10 км  в посл. час ливневой дождь  10/5 1000 м кучево-дожд., средняя 
[Cb calv|Ac und]
+19.3 +17.5 89 +35  1011  -1.3  720  267           
00 07.08.12 010 (С) >10 км  {ливн. осадки}  8/3 1000 м кучево-дожд., средняя 
[Cb calv|Ac trans]
+19.7 +15.3 76 +31  1010.5  -0.4  719  267           
03 07.08.12 010 (С) >10 км    8/3 1000 м кучево-дожд., средняя 
[Cb calv|Ac trans]
+19.1 +15.2 78 +30  1010.5  -0.1  719  268           
06 07.08.12 060 (СВ) >10 км    8/3 1000 м кучево-дожд., средняя 
[Cb calv|Ac trans]
+22.2 +15.6 66 +33  1010.4  0.4  720  265  +18.7       
09 07.08.12 330 (СЗ) >10 км    10/3 1000 м кучево-дожд., средняя, верхняя 
[Cb cap|Ac trans|Ci ing]
+27.7 +15.6 48 +39  1009.4  720  260           
12 07.08.12 090 (В) >10 км    9/4 1000 м кучево-дожд., средняя 
[Cb calv|Ac trans]
+27.5 +16.1 50 +39  1009  -0.4  719  260           
15 07.08.12 350 (С) >10 км    6/1 1000 м кучево-дожд., средняя 
[Cb calv|Ac trans]
+28.5 +15.7 46 +40  1007.2  -1.5  718  259    +29.2       
18 07.08.12 300 (СЗ) >10 км  {ливн. осадки}  6/0 средняя 
[Ac trans]
+22.9 +17 69 +37  1009.4  1.2  719  263    +29.2  0.5     
21 07.08.12 310 (СЗ) >10 км    3/0 средняя 
[Ac trans]
+21.9 +15.6 67 +33  1009  -0.5  719  265           
00 08.08.12 010 (С) >10 км    1/0 средняя 
[Ac trans]
+20.3 +14.5 69 +29  1009.1  -0.2  719  266           
03 08.08.12 340 (С) >10 км    4/0 средняя, верхняя 
[Ac trans|Ci sp]
+20.2 +15 72 +30  1009.7  0.5  719  267           
06 08.08.12 090 (В) >10 км    4/0 средняя 
[Ac trans]
+27.3 +15.6 49 +38  1008.9  0.4  719  260  +19.2         
09 08.08.12 100 (В) >10 км    8/0 средняя 
[Ac trans]
+29.1 +11.4 33 +33  1008.6  719  260           
12 08.08.12 130 (ЮВ) >10 км    4/0 средняя 
[Ac trans]
+32.3 +12.9 31 +39  1007.3  -0.7  719  256           
15 08.08.12 130 (ЮВ) >10 км    8/0 средняя 
[Ac trans]
+30.7 +15 39 +41  1007.1  -0.4  718  257    +33.1       
18 08.08.12 240 (ЮЗ) >10 км    4/0 средняя 
[Ac trans]
+24.4 +17.3 65 +39  1009.3  1.1  719  262    +33.1       
21 08.08.12 230 (ЮЗ) >10 км    6/0 средняя 
[Ac trans]
+23.1 +16.4 66 +36  1009  -0.5  719  263           
00 09.08.12 260 (З) >10 км    10/4 1000 м кучево-дожд., средняя, верхняя 
[Cb calv|Ac und|Ci fib]
+24.4 +17 63 +38  1008.3  -0.5  718  262           
03 09.08.12 250 (З) >10 км    9/3 1000 м кучево-дожд., средняя 
[Cb calv|Ac trans]
+22.9 +16.4 67 +35  1009  0.4  719  264           
06 09.08.12 290 (З) >10 км    8/0 верхняя 
[Ci fib]
+26.2 +16.4 55 +39  1008.2  -0.2  719  261  +22.1         
09 09.08.12 300 (СЗ) >10 км    8/1 600 м верхняя 
[Cu hum|Ci fib]
+31.2 +16.4 41 +44  1007.4  0.1  719  256           
12 09.08.12 280 (З) >10 км    6/3 600 м верхняя 
[Cu hum|Ci fib]
+31.9 +15.8 38 +43  1006.4  -0.9  718  256           
15 09.08.12 270 (З) 10  >10 км  гроза, ливневой дождь  10/8 1020 м кучево-дожд., средняя 
[Cb cap|Ac und]
+22 +18.1 79 +38  1008.6  0.6  718  264           
18 09.08.12 230 (ЮЗ) >10 км  гроза без осадков{ливн. осадки}  10/8 1000 м кучево-дожд., средняя 
[Cb calv|Ac und]
+20.2 +18.5 90 +37  1010.2  1.1  719  265    +33.1  0.0     
21 09.08.12 270 (З) >10 км  {гроза}  6/3 600 м кучево-дожд., средняя 
[Cb calv|Ac trans]
+21.1 +16.5 75 +34  1008.8  -1.3  718  265           
00 10.08.12 300 (СЗ) >10 км  {гроза}  8/0 средняя 
[Ac trans]
+20.2 +16.4 79 +33  1009.4  0.4  719  266           
03 10.08.12 310 (СЗ) >10 км    8/3 1000 м кучево-дожд., верхняя 
[Cb calv|Ci fib]
+19.2 +16.6 85 +33  1010.2  0.6  719  267           
06 10.08.12 300 (СЗ) >10 км    6/0 верхняя 
[Ci fib]
+24.5 +15.9 59 +36  1009.9  0.6  720  263  +19.2    0.4     
09 10.08.12 350 (С) >10 км    8/5 600 м кучево-дожд., верхняя 
[Cb calv|Ci fib]
+28 +13.9 42 +36  1009.1  -0.3  719  260           
12 10.08.12 350 (С) >10 км    9/5 1000 м кучево-дожд., верхняя 
[Cb calv|Ci fib]
+27.7 +14.3 44 +36  1008.9  -0.2  719  260           
15 10.08.12 020 (С) >10 км    10/4 1000 м кучево-дожд., средняя 
[Cb calv|Ac und]
+26.6 +15.2 50 +37  1009.8  0.7  720  261    +28.8       
18 10.08.12 240 (ЮЗ) >10 км    10/4 1000 м кучево-дожд., средняя 
[Cb calv|Ac und]
+21.8 +15.7 68 +33  1011.5  0.8  720  265    +28.8       
21 10.08.12 220 (ЮЗ) >10 км  в посл. час ливневой дождь  10/5 600 м кучево-дожд., средняя 
[Cb calv|Ac trans]
+19.5 +18.4 93 +37  1011.6  -0.2  720  266           
00 11.08.12 260 (З) >10 км  {ливн. осадки}  9/5 1000 м кучево-дожд., средняя 
[Cb calv|Ac trans]
+20.3 +17.6 84 +35  1011.4  0.1  720  266           
03 11.08.12 050 (СВ) >10 км    8/0 средняя 
[Ac trans]
+20.9 +16.9 78 +34  1012.1  0.8  721  266           
06 11.08.12 110 (В) >10 км    6/1 1000 м средняя, верхняя 
[Cu med, cong|Ac trans|Ci fib]
+25 +16.9 61 +38  1011.7  0.2  721  262  +19       
09 11.08.12 140 (ЮВ) >10 км    9/5 1000 м верхняя 
[Cu med, cong|Cc]
+29 +16.5 47 +42  1010.5  -0.5  721  259           
12 11.08.12 020 (С) >10 км  слаб. ливневой дождь, в посл. час гроза  9/4 1000 м кучево-дожд., средняя 
[Cb cap|Ac cuf]
+21.9 +16 69 +33  1012.3  0.6  721  265           
15 11.08.12 090 (В) >10 км  в посл. час гроза{ливн. осадки}  4/3 1000 м кучево-дожд., средняя 
[Cb cap|Ac cuf]
+25 +15.6 56 +36  1011.3  -0.4  721  263    +29       
18 11.08.12 110 (В) >10 км  {гроза, ливн. осадки}  4/0 средняя 
[Ac trans]
+19.8 +17.4 86 +35  1012.4  0.2  721  267    +29  0.8     
21 11.08.12 120 (ЮВ) >10 км    3/0 средняя 
[Ac trans]
+19.4 +16.7 84 +33  1011.5  -1  720  267           
00 12.08.12 120 (ЮВ) >10 км  зарница  6/3 1000 м кучево-дожд., средняя 
[Cb calv|Ac trans]
+19.1 +16.8 87 +34  1011.6  -0.1  720  267           
03 12.08.12 080 (В) >10 км  {ливн. осадки}  8/3 1000 м кучево-дожд., средняя 
[Cb calv|Ac trans]
+19.2 +16.9 87 +34  1011.4  -0.2  720  267      0.5     
06 12.08.12 090 (В) >10 км  {ливн. осадки}  8/3 1000 м кучево-дожд., средняя 
[Cb calv|Ac trans]
+24.3 +17.9 67 +40  1010.4  -0.1  720  262      0.5    замёрзшая 
09 12.08.12 080 (В) >10 км  {ливн. осадки}  9/3 1000 м кучево-дожд., средняя 
[Cb calv|Ac trans]
+28 +18.7 57 +45  1008.6  -1.1  719  258           
12 12.08.12 090 (В) >10 км  {ливн. осадки}  4/4 600 м 
[Cu med, cong]
+30.9 +15.7 40 +42  1006.8  -1.3  718  257           
15 12.08.12 100 (В) >10 км    1/0 средняя 
[Ac trans]
+30 +14.6 39 +39  1005.9  -1  717  257    +31.1       
18 12.08.12 050 (СВ) >10 км    ясно 
+26.8 +12.8 42 +33  1005.8  -0.6  717  261    +31.1  0.0     
21 12.08.12 100 (В) >10 км    ясно 
+22.1 +13.8 59 +30  1005.5  -1.1  716  264           
00 13.08.12 110 (В) >10 км    ясно 
+20.3 +12.9 62 +27  1004.2  -1.5  715  266           
03 13.08.12 010 (С) >10 км    8/4 1000 м кучево-дожд., средняя 
[Cb calv|Ac trans]
+21.1 +14.3 65 +30  1004.7  0.6  715  265           
06 13.08.12 210 (ЮЗ) >10 км    9/1 1000 м кучево-дожд., средняя 
[Cb calv|Ac trans]
+24.5 +17.2 64 +39  1005.5  1.4  716  261  +18.3         
09 13.08.12 290 (З) >10 км  в посл. час ливневой дождь  10/5 1000 м кучево-дожд., средняя 
[Cb calv|Ac und]
+26.1 +18.2 62 +42  1005.8  0.5  717  259           
12 13.08.12 220 (ЮЗ) >10 км  слаб. ливневой дождь  10/6 1000 м кучево-дожд., средняя 
[Cb calv|Ac und]
+23.8 +20.3 81 +45  1008.6  2.3  719  261           
15 13.08.12 290 (З) >10 км  слаб. ливневой дождь  10/5 1000 м кучево-дожд., средняя 
[Cb cap|Ac und]
+24.5 +19.5 74 +44  1009.3  0.8  719  261    +26.6       
18 13.08.12 250 (З) >10 км  {ливн. осадки}  10/6 960 м кучево-дожд., средняя 
[Cb calv|Ac und]
+22.1 +18.7 81 +39  1011  1.1  720  264    +26.6       
21 13.08.12 270 (З) >10 км    3/0 средняя 
[Ac trans]
+21.5 +17.5 78 +36  1011.7  0.5  720  265           
00 14.08.12 290 (З) >10 км    ясно 
+20.4 +17 81 +34  1012.5  0.6  721  266           
03 14.08.12 300 (СЗ) >10 км    3/0 средняя 
[Ac trans]
+19.3 +16.7 85 +33  1013.5  0.7  722  268           
06 14.08.12 050 (СВ) >10 км    9/3 1000 м кучево-дожд., средняя 
[Cb calv|Ac trans]
+23.3 +16.5 66 +36  1012.5  -0.2  721  264  +19    0.3     
09 14.08.12 030 (СВ) >10 км    8/8 900 м 
[Cu med, cong]
+28 +16.2 49 +40  1010.7  -0.9  721  260           
12 14.08.12 080 (В) >10 км    8/5 1000 м кучево-дожд., средняя 
[Cb calv|Ac trans]
+29.9 +15.1 41 +40  1009.6  -0.8  720  258           
15 14.08.12 110 (В) >10 км    8/4 1000 м кучево-дожд., средняя 
[Cb calv|Ac trans]
+28.4 +14.6 43 +37  1009  -0.8  719  260    +30       
18 14.08.12 320 (СЗ) >10 км    10/5 600 м кучево-дожд., средняя 
[Cb calv|Ac trans]
+24.4 +17.2 64 +38  1010.2  0.6  720  262    +30       
21 14.08.12 340 (С) >10 км    3/0 средняя 
[Ac trans]
+20.8 +17.8 83 +36  1010.1  -0.6  719  265           
00 15.08.12 320 (СЗ) >10 км    10/4 1000 м кучево-дожд., средняя 
[Cb calv|Ac trans]
+19.7 +17.7 88 +35  1011.8  1.5  720  267           
06 15.08.12 250 (З) >10 км  {ливн. осадки}  8/4 1000 м кучево-дожд., средняя 
[Cb calv|Ac trans]
+22.3 +17 72 +36  1011.9  0.2  721  265  +17.6         
09 15.08.12 180 (Ю) >10 км  {ливн. осадки}  8/4 1000 м кучево-дожд., средняя 
[Cb calv|Ac trans]
+29.6 +15 41 +39  1010.3  -0.4  720  259           
12 15.08.12 030 (СВ) >10 км  {ливн. осадки}  8/4 1000 м кучево-дожд., средняя 
[Cb calv|Ac trans]
+26.9 +16.1 52 +39  1010.3  -0.5  720  261           
15 15.08.12 350 (С) >10 км    10/4 1000 м кучево-дожд., средняя 
[Cb calv|Ac und]
+26.1 +16.9 57 +39  1010.1  -0.2  720  261    +29.6       
18 15.08.12 360 (С) >10 км  гроза, ливневой дождь  10/6 600 м кучево-дожд., средняя 
[Cb calv|Ac inh]
+21.3 +19.8 91 +41  1011.7  0.8  721  264    +29.6       
21 15.08.12 280 (З) >10 км  {гроза, ливн. осадки}  8/3 600 м кучево-дожд., средняя 
[Cb calv|Ac trans]
+18.1 +17.6 97 +35  1010.4  -1.8  719  268           
00 16.08.12 010 (С) >10 км  гроза без осадков{ливн. осадки}  10/5 240 м кучево-дожд., средняя 
[Cb calv|Ac As]
+18.7 +17.1 90 +33  1010.7  0.4  719  267           
03 16.08.12 130 (ЮВ) >10 км  в посл. час гроза  8/3 600 м кучево-дожд., средняя, верхняя 
[Cb calv|Ac inh|Ci]
+18.4 +16.6 89 +32  1010.9  0.1  720  268           
06 16.08.12 030 (СВ) >10 км  {гроза}  10/6 1000 м кучево-дожд., средняя 
[Cb calv|Ac und]
+21 +16.4 75 +33  1010.7    720  266  +17.6    13    замёрзшая 
09 16.08.12 080 (В) >10 км  гроза, ливневой дождь  10/6 600 м кучево-дожд., средняя 
[Cb calv|Ac und]
+19.6 +18.6 94 +38  1010.8  0.1  720  266           
12 16.08.12 360 (С) >10 км  {гроза, ливн. осадки}  9/4 600 м кучево-дожд., средняя 
[Cb calv|Ac trans]
+22.2 +18.6 80 +39  1010.3  720  264           
15 16.08.12 350 (С) 10 км  гроза, ливневой дождь  10/8 420 м кучево-дожд., средняя 
[Cb calv|Ac und]
+19 +18.2 95 +36  1011  -0.1  720  267    +22.4       
18 16.08.12 тихо ()   >10 км  слаб. ливневой дождь{гроза}  9/6 600 м кучево-дожд., средняя 
[Cb cap|Ac trans]
+18 +17.2 95 +32  1011.5  0.3  720  268    +22.4  12     
21 16.08.12 200 (Ю) 2000 м  дымка{гроза, ливн. осадки}  10/8 100 м кучево-дожд., средняя 
[Cb calv|Ac und]
+17.6 +17 96 +32  1011.4  0.1  720  269           
03 17.08.12 200 (Ю) >10 км  {ливн. осадки}  10/6 600 м кучево-дожд., средняя 
[Cb calv|Ac und]
+18 +16.6 92 +32  1011.6  -0.1  720  268           
06 17.08.12 210 (ЮЗ) >10 км  гроза, ливневой дождь  10/8 600 м кучево-дожд., средняя 
[Cb cap|Ac und]
+17.9 +16.3 90 +31  1012  0.3  720  269  +16.2       
09 17.08.12 230 (ЮЗ) >10 км  {гроза, ливн. осадки}  8/4 1000 м кучево-дожд., средняя 
[Cb calv|Ac trans]
+23.5 +15.2 60 +34  1010.5  -0.4  720  264           
12 17.08.12 250 (З) >10 км  {гроза, ливн. осадки}  6/5 600 м средняя 
[Cu hum|Ac trans]
+26.3 +14.3 48 +35  1009.6  -0.4  720  262           
15 17.08.12 280 (З) >10 км    3/1 600 м средняя 
[Cu hum|Ac trans]
+22.3 +14.8 63 +32  1011.4  1.1  720  265    +26.5       
18 17.08.12 260 (З) >10 км    3/0 средняя 
[Ac trans]
+16.6 +13.4 81 +24  1014.5  1.9  722  271    +26.5  0.8     
21 17.08.12 250 (З) >10 км    3/3 <0100 м средняя 
[Ac trans]
+17.6 +12.8 73 +24  1014.1  -0.2  722  271           
00 18.08.12 250 (З) >10 км    ясно 
+15.8 +13.6 87 +23  1014.6  0.2  722  272           
03 18.08.12 250 (З) >10 км    1/0 средняя 
[Ac trans]
+16.5 +13.9 85 +25  1014.6  -0.1  722  271           
06 18.08.12 260 (З) >10 км    3/3 600 м 
[Cu hum]
+21.6 +14.3 63 +30  1014.2  0.5  722  267  +14.9         
09 18.08.12 260 (З) >10 км    5/5 600 м 
[Cu hum]
+25.3 +12.8 46 +31  1013.2  -0.4  722  264           
12 18.08.12 310 (СЗ) >10 км    4/4 1000 м 
[Cu hum]
+25.8 +10.6 38 +29  1012.4  -0.7  721  264           
15 18.08.12 260 (З) >10 км    3/3 1000 м 
[Cu hum]
+24.5 +11.4 44 +28  1012.8  0.2  722  265    +26.3       
18 18.08.12 340 (С) >10 км    3/0 средняя 
[Ac trans]
+19.7 +13.5 67 +28  1015  1.3  723  269    +26.3       
21 18.08.12 тихо ()   >10 км    4/0 средняя 
[Ac trans]
+17.7 +13.6 77 +25  1015.3  723  271           
00 19.08.12 140 (ЮВ) >10 км    8/0 средняя 
[Ac trans]
+20 +13.2 65 +27  1014.3  -0.6  722  268           
03 19.08.12 170 (Ю) >10 км    9/3 1000 м кучево-дожд., средняя 
[Cb calv|Ac trans]
+18.9 +14.1 74 +28  1014.5  -0.1  722  269           
06 19.08.12 150 (ЮВ) >10 км  {ливн. осадки}  9/4 1000 м кучево-дожд., средняя 
[Cb calv|Ac trans]
+19 +15.9 82 +31  1014.6  0.2  722  269  +17         
09 19.08.12 100 (В) >10 км  {ливн. осадки}  9/3 1000 м кучево-дожд., средняя 
[Cb cap|Ac As]
+22 +12.9 56 +28  1014.2  722  267           
12 19.08.12 130 (ЮВ) >10 км  {ливн. осадки}  6/3 600 м кучево-дожд., средняя 
[Cb cap|Ac trans]
+23.2 +14.2 57 +32  1012.9  -0.9  722  265           
15 19.08.12 170 (Ю) >10 км    9/5 600 м кучево-дожд., средняя 
[Cb calv|Ac trans]
+20.6 +15.8 74 +32  1013.1  -0.3  721  267    +24       
18 19.08.12 360 (С) 4000 м  ливневой дождь  10/6 300 м кучево-дожд., средняя 
[Cb cap|Ac und]
+15.9 +15.2 96 +26  1015.5  1.5  722  272    +24  0.3     
21 19.08.12 290 (З) >10 км  в посл. час ливневой дождь  10/6 600 м кучево-дожд., средняя 
[Cb cap|Ac und]
+15.9 +15.4 97 +26  1014.9  -0.6  722  272           
00 20.08.12 270 (З) >10 км  {ливн. осадки}  8/3 300 м кучево-дожд., средняя 
[Cb cap|Ac cuf]
+14.7 +13.9 95 +23  1015.3  0.2  722  273           
03 20.08.12 270 (З) >10 км    3/0 средняя 
[Ac As]
+14.5 +13.4 93 +22  1015.4  722  274           
06 20.08.12 250 (З) >10 км    4/3 600 м верхняя 
[Cu hum|Ci fib]
+20.5 +14.1 67 +29  1014.5  0.2  722  268  +13.7       
09 20.08.12 310 (СЗ) >10 км    8/6 1200 м верхняя 
[Cu hum|Ci fib]
+22.5 +13 55 +29  1013.8  -0.4  722  266           
12 20.08.12 320 (СЗ) >10 км    8/5 1000 м кучево-дожд., верхняя 
[Cb calv|Ci fib]
+23.5 +12.1 49 +28  1012.6  -0.9  721  265           
15 20.08.12 300 (СЗ) >10 км    8/4 1000 м кучево-дожд., верхняя 
[Cb calv|Ci fib]
+22.5 +11.7 50 +27  1012.8  721  266    +25       
18 20.08.12 260 (З) >10 км    3/1 1000 м кучево-дожд., верхняя 
[Cb calv|Ci fib]
+17.8 +13.6 76 +25  1014.6  0.9  722  270    +25       
21 20.08.12 270 (З) >10 км    3/0 верхняя 
[Ci fib]
+16.9 +13 78 +23  1014.4  -0.4  722  271           
00 21.08.12 260 (З) >10 км    ясно 
+15.4 +12.9 85 +21  1014.8  0.1  722  273           
03 21.08.12 230 (ЮЗ) >10 км    3/0 средняя 
[Ac trans]
+13.8 +12.7 93 +20    -0.6  722  274           
06 21.08.12 250 (З) >10 км    1/1 600 м 
[Cu hum]
+20.9 +12.7 59 +27  1012.6  -0.6  721  267  +13.7         
09 21.08.12 260 (З) 10{19}  >10 км    6/6 600 м 
[Cu hum]
+23.2 +13.8 55 +31  1010.9  -1.1  720  265           
12 21.08.12 270 (З) 11  >10 км    н/о 
+23.3 +14.5 58 +32  1010  -0.9  719  264           
15 21.08.12 260 (З) 10  >10 км    6/3 1000 м кучево-дожд., средняя 
[Cb calv|Ac trans]
+23 +12.9 53 +29  1008.6  -1.4  718  264    +25       
18 21.08.12 260 (З) >10 км    8/3 1000 м кучево-дожд., средняя 
[Cb calv|Ac trans]
+20.5 +13.5 64 +28  1010.6  1.4  720  267    +25       
21 21.08.12 270 (З) >10 км  слаб. ливневой дождь  10/8 930 м кучево-дожд., средняя 
[Cb cap|Ac und]
+15.6 +14.6 94 +25  1012.8  1.3  721  272           
00 22.08.12 310 (СЗ) >10 км  в посл. час ливневой дождь  8/5 1000 м кучево-дожд., средняя 
[Cb calv|Ac trans]
+15.6 +14.5 93 +25  1012.8  -0.1  720  272           
03 22.08.12 340 (С) >10 км    9/8 300 м кучево-дожд., средняя 
[Cb calv|Ac trans]
+13.1 +12.1 94 +18  1014.1  0.8  721  275           
06 22.08.12 320 (СЗ) >10 км    4/3 300 м средняя 
[Sc diur, vesp|Ac trans]
+15 +9.3 69 +16  1015.2  1.3  722  274  +13       
09 22.08.12 300 (СЗ) >10 км    3/0 средняя 
[Ac trans]
+17 +7.8 55 +16  1014.7  1.3  722  272           
12 22.08.12 290 (З) >10 км    3/0 средняя 
[Ac trans]
+18.9 +5.8 42 +19  1014.5  0.1  722  271           
15 22.08.12 290 (З) >10 км    ясно 
+17.7 +5.2 44 +18  1015.2  0.4  722  272    +19.1       
18 22.08.12 290 (З) >10 км    ясно 
+14.1 +6.1 59 +14  1017.4  1.5  723  276    +19.1       
21 22.08.12 270 (З) >10 км    ясно 
+13.2 +6.3 63 +12  1018.4  0.8  724  277           
00 23.08.12 270 (З) >10 км    ясно 
+11.9 +6.1 68 +11  1018.8  0.1  724  279           
03 23.08.12 260 (З) >10 км    ясно 
+11.6 +5.5 66 +11  1019.3  0.4  724  279           
06 23.08.12 280 (З) >10 км    ясно 
+18.3 +6.1 45 +18  1018.7  0.6  725  273  +10.3         
09 23.08.12 290 (З) >10 км    ясно 
+22.2 +2.8 28 +22  1017.7  -0.3  725  270           
12 23.08.12 290 (З) >10 км    ясно 
+24.4 +2.6 24 +24  1016.7  -0.6  724  267           
15 23.08.12 310 (СЗ) >10 км    ясно 
+22.6 +2.9 27 +23  1016.7  -0.3  724  269    +24.4       
18 23.08.12 280 (З) >10 км    ясно 
+15.6 +4.7 48 +16  1018.6  0.6  725  275    +24.4       
21 23.08.12 220 (ЮЗ) >10 км    ясно 
+16 +6.1 52 +17  1018.3  -0.2  724  275           
00 24.08.12 260 (З) >10 км    ясно 
+15 +5.5 53 +15  1017.7  -0.7  724  276           
03 24.08.12 240 (ЮЗ) >10 км    ясно 
+14.7 +6.4 57 +15  1017.5  -0.2  724  276           
06 24.08.12 250 (З) >10 км    3/0 верхняя 
[Ci fib]
+24.5 +4.5 27 +25  1016  0.2  724  267  +13.5         
09 24.08.12 220 (ЮЗ) >10 км    4/0 верхняя 
[Ci fib]
+27 +6.3 27 +27  1015  -0.5  723  264           
12 24.08.12 330 (СЗ) >10 км    6/0 верхняя 
[Ci fib]
+28.4 +7.2 26 +28  1014.5  -0.3  723  263           
15 24.08.12 340 (С) >10 км    1/0 верхняя 
[Ci fib]
+26.4 +7.8 31 +26  1014.6  -0.2  723  264    +28.7       
18 24.08.12 350 (С) >10 км    ясно 
+22.3 +9.7 45 +24  1016.1  0.7  724  268    +28.7       
21 24.08.12 240 (ЮЗ) >10 км    ясно 
+18.7 +9.6 55 +21  1016.7  724  271           
00 25.08.12 230 (ЮЗ) >10 км    ясно 
+16.9 +9.4 61 +19  1016.6  -0.4  723  273           
03 25.08.12 тихо ()   >10 км    ясно 
+19 +10.5 58 +22  1016.4  0.2  723  271           
06 25.08.12 150 (ЮВ) >10 км    ясно 
+26.8 +9.5 34 +28  1015.4  0.4  724  264  +16.9         
09 25.08.12 070 (В) >10 км    ясно 
+29 +10.8 32 +32  1014.3  -0.7  723  261           
12 25.08.12 260 (З) >10 км    1/1 600 м 
[Cu hum]
+30.5 +9.4 27 +32  1012.7  -1.3  722  260           
15 25.08.12 270 (З) >10 км    1/0 средняя 
[Ac trans]
+29.2 +11 32 +32  1012.4  -0.4  722  261    +31       
18 25.08.12 220 (ЮЗ) >10 км    ясно 
+23.6 +12.3 49 +29  1014.3  0.9  723  266    +31       
21 25.08.12 230 (ЮЗ) >10 км    ясно 
+20.6 +11.8 57 +25  1014  -0.8  722  268           
00 26.08.12 240 (ЮЗ) >10 км    ясно 
+20.1 +11 56 +23  1013.8  -0.3  722  269           
03 26.08.12 260 (З) >10 км    ясно 
+20.6 +11 54 +24  1013.9  0.2  722  268           
06 26.08.12 330 (СЗ) >10 км    ясно 
+28.9 +11.3 34 +33  1012.8  0.3  722  261  +19         
09 26.08.12 350 (С) >10 км    ясно 
+30.9 +11.4 30 +35  1011.7  -0.7  722  259           
12 26.08.12 350 (С) >10 км    ясно 
+32.6 +11.1 27 +36  1010.1  -1.3  721  257           
15 26.08.12 350 (С) >10 км    ясно 
+30.4 +11.8 32 +35  1010  -0.4  720  259    +33.1       
18 26.08.12 230 (ЮЗ) >10 км    ясно 
+24 +13.4 52 +31  1010.9  0.1  720  264    +33.1       
21 26.08.12 210 (ЮЗ) >10 км    ясно 
+24 +12.6 49 +30  1010  -0.9  720  264           
00 27.08.12 190 (Ю) >10 км    ясно 
+21.7 +11.9 54 +26  1009.4  -1  719  266           
03 27.08.12 100 (В) >10 км    ясно 
+21.9 +13.2 58 +29  1008.8  -0.5  718  265           
06 27.08.12 080 (В) >10 км    ясно 
+29.4 +13.1 37 +36  1007.2  -0.3  718  259  +19.2         
09 27.08.12 120 (ЮВ) >10 км    ясно 
+32.1 +11.1 28 +36  1005.4  -1.3  717  257           
12 27.08.12 110 (В) >10 км    1/1 600 м 
[Cu hum]
+33 +9 23 +34  1003.9  -1.3  716  256           
15 27.08.12 090 (В) >10 км    ясно 
+30.4 +12.4 33 +36  1002.6  -1.5  715  257    +33.2       
18 27.08.12 080 (В) >10 км    4/0 средняя 
[Ac trans]
+25.4 +15.5 54 +36  1003.5  715  260    +33.2       
21 27.08.12 090 (В) >10 км    3/0 средняя 
[Ac trans]
+22.4 +15.5 65 +33  1002.3  -1.6  714  262           
00 28.08.12 090 (В) >10 км    3/0 средняя 
[Ac trans]
+21.3 +12.2 56 +27  1002.5  714  264           
03 28.08.12 120 (ЮВ) >10 км    8/3 1000 м средняя 
[Sc|Ac trans]
+19.6 +12.4 63 +26  1003  0.2  714  266           
06 28.08.12 150 (ЮВ) >10 км    4/3 600 м верхняя 
[Cu hum|Ci fib]
+26 +14.2 48 +35  1002.5  0.2  715  260  +19.6         
09 28.08.12 100 (В) >10 км    9/5 1000 м кучево-дожд., средняя 
[Cb calv|Ac trans]
+26.3 +15.6 52 +37  1002.4  -0.1  714  259           
12 28.08.12 190 (Ю) >10 км  гроза без осадков{ливн. осадки}  9/6 1000 м кучево-дожд., средняя 
[Cb calv|Ac trans]
+23.5 +19.5 78 +43  1003.1  0.4  715  260           
15 28.08.12 010 (С) >10 км  гроза без осадков{ливн. осадки}  8/5 1000 м кучево-дожд., средняя 
[Cb calv|Ac trans]
+24.1 +18.9 73 +42  1002.9  -0.1  715  260    +27.5       
18 28.08.12 330 (СЗ) >10 км  в посл. час гроза{ливн. осадки}  6/3 1000 м кучево-дожд., средняя 
[Cb calv|Ac trans]
+21.5 +17.2 77 +36  1003.3  0.1  715  263    +27.5  0.5     
21 28.08.12 310 (СЗ) >10 км    9/6 1000 м кучево-дожд., средняя 
[Cb calv|Ac trans]
+20.2 +17.8 86 +36  1004.7  1.1  715  264           
00 29.08.12 010 (С) >10 км  гроза, ливневой дождь  9/5 600 м кучево-дожд., средняя 
[Cb calv|Ac trans]
+17.4 +16.6 95 +32  1005.5  0.3  716  267           
03 29.08.12 180 (Ю) 10 км  слаб. ливневой дождь{гроза}  10/6 1050 м кучево-дожд., средняя 
[Cb cap|Ac As]
+17.7 +16.8 94 +32  1006  0.5  716  267           
06 29.08.12 300 (СЗ) 4000 м  ливневой дождь{гроза}  9/5 200 м кучево-дожд., средняя 
[Cb calv|Ac trans]
+18.8 +17.2 90 +33  1007.2  1.4  717  266  +17.1    13     
09 29.08.12 290 (З) 7{18}  10 км  гроза, ливневой дождь  10/8 630 м кучево-дожд., средняя 
[Cb cap|Ac und]
+15.7 +14.1 90 +23  1009.2  1.3  718  271           
12 29.08.12 270 (З) >10 км  {гроза, ливн. осадки}  10/6 300 м кучево-дожд., средняя 
[Cb cap|Ac und]
+16.9 +14.3 85 +26  1009.8  0.7  719  270           
15 29.08.12 280 (З) >10 км  {ливн. осадки}  6/3 600 м кучево-дожд., средняя 
[Cb calv|Ac trans]
+19.2 +11.8 62 +24  1010.5  719  268    +20.9       
18 29.08.12 280 (З) 10  >10 км    ясно 
+16 +9.5 65 +16  1012.2  720  272      13     
21 29.08.12 280 (З) >10 км    ясно 
+15.3 +10.6 74 +17  1013.1  0.7  721  273           
00 30.08.12 280 (З) 10  >10 км    3/0 средняя 
[Ac trans]
+15 +11.5 80 +18  1012.9  -0.2  720  273           
03 30.08.12 260 (З) 10  >10 км    3/3 300 м 
[Sc]
+15.4 +11 75 +17  1013.3  -0.2  721  273           
06 30.08.12 270 (З) 11-18{18}  >10 км    3/1 600 м средняя 
[Sc|Ac trans]
+18.8 +11 60 +21  1014.1  1.3  722  270  +14.3         
09 30.08.12 270 (З) 11-18{18}  >10 км    5/5 600 м 
[Cu hum]
+21.9 +11 50 +25  1013.7  0.2  722  267           
12 30.08.12 280 (З) 9{18}  >10 км    6/6 600 м 
[Cu hum]
+22.1 +9.1 43 +23  1014  0.3  722  268           
15 30.08.12 270 (З) >10 км    6/6 800 м 
[Cu hum]
+19.9 +10.9 56 +23  1015.4  723  269    +23.2       
18 30.08.12 300 (СЗ) >10 км    4/3 600 м кучево-дожд., средняя 
[Cb calv|Ac trans]
+16.7 +12.7 77 +24  1017.2  1.2  724  272    +23.2       
21 30.08.12 220 (ЮЗ) >10 км    1/0 средняя 
[Ac trans]
+13.2 +11.9 92 +18  1018.1  0.2  724  276           
00 31.08.12 270 (З) >10 км    ясно 
+13.7 +12.1 90 +18  1017.2  -0.8  723  275           
03 31.08.12 260 (З) >10 км    3/0 средняя 
[Ac trans]
+11.3 +10.5 95 +14  1018.3  0.6  724  278           
06 31.08.12 300 (СЗ) >10 км    3/3 800 м 
[Cu hum]
+17.9 +11.8 67 +22  1017.4  0.3  724  272  +11.3         
09 31.08.12 310 (СЗ) >10 км    5/5 600 м 
[Cu hum]
+21.4 +11.6 54 +26  1016.1  -0.6  724  268           
12 31.08.12 360 (С) >10 км    6/6 900 м 
[Cu hum]
+21 +11.2 53 +25  1015.9  -0.2  723  269           
15 31.08.12 010 (С) >10 км    3/3 600 м 
[Cu hum]
+19.8 +11.2 58 +24  1016.5  0.3  724  270    +22       
18 31.08.12 020 (С) >10 км    ясно 
+15 +12.2 83 +20  1019  1.6  725  274           
21 31.08.12 080 (В) >10 км    3/0 верхняя 
[Ci fib]
+12.4 +11.4 94 +16  1019.6  0.1  725  277           
00 01.09.12 070 (В) >10 км    6/3 1000 м средняя 
[Sc|Ac trans]
+13.4 +12.5 94 +19  1019.4  0.1  725  276           
03 01.09.12 130 (ЮВ) 4000 м  дымка  10/6 1000 м средняя 
[Sc|Ac und]
+13.7 +13 96 +20  1019.7  0.4  725  276           
06 01.09.12 070 (В) 4000 м  дымка  10/8 200 м средняя 
[Sc diur, vesp|Ac und]
+15.5 +13.2 86 +22  1020.5  1.1  726  274  +12.2        замёрзшая 
09 01.09.12 060 (СВ) >10 км    10/8 540 м кучево-дожд., средняя 
[Cb calv|Ac und]
+17.8 +13 73 +24  1020.3  0.2  726  272           
Время (UTC), дата Ветер
(°,м/с) 
Видим.   Явления Облачность Т
(°С)
Тd
(°С)
f(%) Тe
(°С)
Pmin
(гПа)
dP
(гПа)
Po
(мм)
O2
(г/м3)
Тmin Tmax R s Состояние
почвы